SCOUT A R/B, 2755

Orbit data source: Space-Track

SCOUT A R/B, 2755 is space debris in LEO originally from a launch on Fri, 14 Apr 1967 UTC launched from the Air Force Western Test Range (AFWTR). Debris objects in space refer to the collection of defunct objects orbiting the Earth. Examples of debris include non-operational satellites, rocket bodies, and fragments generated from explosions, collisions, or faulty payload assembly.

Loading next visibility...
Identifier
2755, 1967-034B
Orbit
LEO
Country
Flag of USUS
Related business
Manufacturer
ABL
Mission
Spacecraft
Bus & Motor
ALTAIR, Unknown motor
Mass
33 kg wet, 33 kg dry
Launch date (UTC)
1967-04-14 (59 years ago)
Launch vehicle
Unknown
Launch site
Air Force Western Test Range (AFWTR)
Object type
Payload
Rocket body
Debris
Shape & HBR
Unknown
Radar Cross Section
Medium (>0.1 m² and <1 m²)

Expand to show TLE details & history
Last TLE update: 7 hours ago

TLE from 7 hours ago
0 SCOUT A R/B
1 02755U 67034B   26111.91842439  .00000178  00000-0  24964-3 0  9994
2 02755  90.2735  54.5591 0026173 151.7616 279.5333 13.54017480914427
Epoch: 2026-04-21T22:02Z
TLE epoch observation values (Epoch: 2026-04-21T22:02:31.867Z)
Latitude
71.06441°
Longitude
-126.85413°
Altitude
1,066.703 km
Speed
7.327 km/s
True Right ascension
03h 35m 03s
True Declination
70° 57' 47"
Sunlit
Object was in daylight at epoch
Visualization orbit readout
Latitude
Unknown
Longitude
Unknown
Altitude
Unknown
Speed
Unknown
Apparent Right ascension
Unknown
Apparent Declination
Unknown
Sunlit
N/A
Visualization observer readout
Local Sidereal Time
12:02:20
Azimuth
Unknown
Elevation
Unknown
Doppler factor
Unknown
Orbital elements
Apogee altitude
1,074.012 km
Perigee altitude
1,035.104 km
Semi-major axis
7,432.695 km
Eccentricity
0.00262
Inclination
90.2735°
RAAN
54.5591°
Arg. of periapsis
151.7616°
True anomaly
279.23736°
Mean anomaly
279.5333°
Eccentric anomaly
279.38535°
Mean motion
3.38707 °/min
Orbital period
106.29 mins
BSTAR
0.00024964
Loading maneuver chart data...
Computing Atmospheric mass density...
Loading historical data...
Loading historical data...
Loading historical data...
Loading historical data...
Loading historical data...
Loading historical data...
Loading historical data...

Documentation

Showing up to 5 results
|